[ hide orbit diagram ]
For accurate long-term ephemerides, please instead use our Horizons system.This orbit viewer was implemented using two-body methods, and hence should not be used for determining accurate long-term trajectories (over several years or decades) or planetary encounter circumstances.
[ revert to old Java-based viewer ]
Orbital Elements at Epoch 2458600.5 (2019-Apr-27.0) TDB
Reference: JPL 6 (heliocentric ecliptic J2000)
Element | Value | Uncertainty (1-sigma) | Units |
e | .3186988404455348 | 0.00044946 | |
a | 53.13084611818382 | 0.041793 | au |
q | 36.19810706842849 | 0.004645 | au |
i | 4.807957865911588 | 0.00048182 | deg |
node | 165.1679294698021 | 0.0018914 | deg |
peri | 173.7289542191848 | 0.024189 | deg |
M | 16.70094708179689 | 0.030059 | deg |
tp | 2452038.184228828153 (2001-May-08.68422883) | 4.6359 | TDB |
period | 141455.072341184 387.28 | 166.91 0.457 | d yr |
n | .002544977667055263 | 3.0029e-06 | deg/d |
Q | 70.06358516793915 | 0.055113 | au |
|
| | Orbit Determination Parameters
Additional Information
|
[ show covariance matrix ]
495297 (2013 TJ159) Discovered 2013-Oct-13 by DECam at Cerro Tololo |
Reference: | Last Updated: 2017-06-12 |
|
|